This demonstration page uses our WeatherBlox Daily Observations layout. Learn more.

Left ArrowRight Arrow

30.21309, -93.2044

Hourly Observations for April 14, 2022

Temp ( °F °C ) Dew Point ( °F °C ) Humidity (%) Winds ( mph kmh ) Pressure ( in mb ) Visibility ( mi km ) Precip ( " mm )
12:15 am 00:15 Cloudy 67 19.4 59 14.9 75 75 NNE 7 11 29.94 1014 10 16 0.00 0.00
12:35 am 00:35 Cloudy 67 19.4 58 14.4 73 73 NNE 9 15 29.95 1014 10 16 0.00 0.00
12:55 am 00:55 Cloudy 67 19.3 56 13.5 69 69 NNE 9 15 29.95 1014 10 16 0.00 0.00
1:15 am 01:15 Cloudy 67 19.2 56 13.2 68 68 NNE 13 20 29.95 1014 10 16 0.00 0.00
1:35 am 01:35 Cloudy 66 19 54 12.3 65 65 NNE 9 15 29.97 1015 10 16 0.00 0.00
1:55 am 01:55 Cloudy 66 19 54 12 64 64 NNE 12 19 29.97 1015 10 16 0.00 0.00
2:15 am 02:15 Cloudy 66 18.8 53 11.9 64 64 NNE 16 26 29.98 1015 10 16 0.00 0.00
2:35 am 02:35 Cloudy 64 18 52 11 64 64 NNE 12 19 29.98 1015 10 16 0.00 0.00
2:55 am 02:55 Cloudy 65 18.4 51 10.7 61 61 NNE 12 19 29.98 1015 10 16 0.00 0.00
3:15 am 03:15 Cloudy 65 18.2 50 9.9 59 59 NNE 15 24 29.98 1015 10 16 0.00 0.00
3:35 am 03:35 Cloudy 64 17.9 50 9.8 59 59 NNE 15 24 29.98 1015 10 16 0.00 0.00
3:55 am 03:55 Cloudy 64 17.6 49 9.4 59 59 NE 12 19 29.98 1015 10 16 0.00 0.00
4:15 am 04:15 Mostly Cloudy 63 17.2 49 9.4 60 60 NE 10 17 29.98 1015 N/A 0.00 0.00
4:35 am 04:35 Cloudy 63 17.1 49 9.6 62 62 NE 13 20 29.98 1015 10 16 0.00 0.00
4:55 am 04:55 Cloudy 62 16.8 50 9.9 64 64 NE 13 20 29.98 1015 10 16 0.00 0.00
5:15 am 05:15 Partly Cloudy 61 16.2 50 10.2 68 68 ENE 9 15 29.99 1016 10 16 0.00 0.00
5:35 am 05:35 Partly Cloudy 61 15.9 51 10.3 70 70 ENE 12 19 29.99 1016 10 16 0.00 0.00
6:00 am 06:00 Mostly Clear 61 16 48 9 63 63 ENE 9 15 30.00 1016 10 16 0.00 0.00
6:48 am 06:48 Mostly Sunny 57 14 48 9 72 72 ENE 9 15 30.01 1016 10 16 0.00 0.00
7:45 am 07:45 Mostly Sunny 57 14 50 10 77 77 ENE 12 19 30.02 1017 10 16 0.00 0.00
8:45 am 08:45 Mostly Sunny 63 17 50 10 64 64 E 17 28 30.04 1017 10 16 0.00 0.00
9:50 am 09:50 Mostly Sunny 64 18 48 9 56 56 ENE 16 26 30.06 1018 10 16 0.00 0.00
10:55 am 10:55 Mostly Sunny 70 21 46 8 43 43 E 16 26 30.08 1019 10 16 0.00 0.00
11:50 am 11:50 Mostly Sunny 72 22 46 8 41 41 E 14 22 30.08 1019 10 16 0.00 0.00
12:55 pm 12:55 Mostly Sunny 73 23 46 8 38 38 ENE 14 22 30.08 1019 10 16 0.00 0.00
1:55 pm 13:55 Mostly Sunny 77 25 46 8 34 34 ENE 12 19 30.06 1018 10 16 0.00 0.00
2:50 pm 14:50 Mostly Sunny 79 26 45 7 30 30 ENE 13 20 30.04 1017 10 16 0.00 0.00
3:50 pm 15:50 Mostly Sunny 81 27 43 6 26 26 E 9 15 30.01 1016 10 16 0.00 0.00
4:50 pm 16:50 Mostly Sunny 79 26 43 6 28 28 E 14 22 30.00 1016 10 16 0.00 0.00
5:53 pm 17:53 Mostly Sunny 77 25 48 9 36 36 E 12 19 30.00 1016 10 16 0.00 0.00
6:55 pm 18:55 Mostly Sunny 75 24 50 10 41 41 E 10 17 29.99 1016 10 16 0.00 0.00
7:50 pm 19:50 Mostly Clear 70 21 52 11 53 53 ENE 7 11 29.98 1015 10 16 0.00 0.00
8:53 pm 20:53 Mostly Clear 66 19 52 11 60 60 NE 5 7 29.99 1016 10 16 0.00 0.00
9:45 pm 21:45 Mostly Clear 66 19 52 11 60 60 ENE 9 15 30.00 1016 10 16 0.00 0.00
10:15 pm 22:15 Clear 65 18.6 53 11.4 63 63 E 7 11 30.01 1016 10 16 0.00 0.00
10:35 pm 22:35 Clear 65 18.6 53 11.7 64 64 ENE 7 11 30.02 1017 10 16 0.00 0.00
10:55 pm 22:55 Partly Cloudy 65 18.3 53 11.9 66 66 E 5 7 30.02 1017 10 16 0.00 0.00
11:15 pm 23:15 Mostly Cloudy 65 18.6 54 12.2 67 67 ENE 5 7 30.03 1017 7 11 0.00 0.00
11:35 pm 23:35 Mostly Cloudy 65 18.1 55 12.6 70 70 NE 5 7 30.03 1017 10 16 0.00 0.00
11:55 pm 23:55 Partly Cloudy 64 17.8 55 12.7 72 72 NE 5 7 30.02 1017 10 16 0.00 0.00

Powered by AerisWeather